KC8SWY-15 Weather Reports


time (UTC)temp
F
wind
direction
speed
knots
gust
knots
rain 1hr
in
rain 24hr
in
rain mn
in
humidity
%
barometer
mb
20260906162519 72 84 4.3 8.7 0.00 0.00 0.00 65 1019.9
20260906162019 72 159 4.3 12.2 0.00 0.00 0.00 66 1019.8
20260906161519 72 128 6.1 9.6 0.00 0.00 0.00 66 1019.9
20260906161019 71 93 4.3 12.2 0.00 0.00 0.00 67 1019.9
20260906160519 71 118 4.3 7.0 0.00 0.00 0.00 69 1019.8
20260906160019 71 121 4.3 9.6 0.00 0.00 0.00 68 1019.8
20260906155519 71 59 3.5 8.7 0.00 0.00 0.00 69 1019.9
20260906155019 71 67 4.3 8.7 0.00 0.00 0.00 71 1019.9
20260906154613 70 84 3.5 8.7 0.00 0.00 0.00 69 1019.9
20260906154519 70 84 3.5 8.7 0.00 0.00 0.00 69 1019.9
20260906154019 70 162 4.3 8.7 0.00 0.00 0.00 70 1019.9
20260906153519 70 78 4.3 7.8 0.00 0.00 0.00 71 1019.9
20260906153105 70 105 3.5 9.6 0.00 0.00 0.00 69 1020.0
20260906153019 70 105 3.5 9.6 0.00 0.00 0.00 69 1020.0
20260906152519 70 69 3.5 7.8 0.00 0.00 0.00 72 1019.9
20260906152019 70 106 3.5 8.7 0.00 0.00 0.00 72 1019.9
20260906151519 70 152 1.7 7.0 0.00 0.00 0.00 75 1019.9
20260906151019 70 114 1.7 5.2 0.00 0.00 0.00 77 1019.8
20260906150519 69 78 1.7 6.1 0.00 0.00 0.00 78 1019.7
20260906150019 69 96 3.5 5.2 0.00 0.00 0.00 80 1019.6
20260906145519 68 65 4.3 7.8 0.00 0.00 0.00 79 1019.6
20260906145019 68 73 3.5 8.7 0.00 0.00 0.00 80 1019.6
20260906144519 68 88 2.6 9.6 0.00 0.00 0.00 81 1019.6
20260906144019 68 103 3.5 8.7 0.00 0.00 0.00 82 1019.6
20260906143519 67 78 5.2 8.7 0.00 0.00 0.00 82 1019.6
20260906143019 67 142 5.2 9.6 0.00 0.00 0.00 82 1019.5
20260906142519 66 100 5.2 9.6 0.00 0.00 0.00 83 1019.5
20260906142019 66 100 4.3 9.6 0.00 0.00 0.00 82 1019.6
20260906141551 66 80 4.3 7.8 0.00 0.00 0.00 84 1019.6
20260906141519 66 80 4.3 7.8 0.00 0.00 0.00 84 1019.6
20260906141019 66 90 5.2 10.4 0.00 0.00 0.00 84 1019.6
20260906140519 66 84 3.5 9.6 0.00 0.00 0.00 83 1019.7
20260906140019 66 110 3.5 6.1 0.00 0.00 0.00 85 1019.8
20260906135519 65 93 2.6 7.8 0.00 0.00 0.00 85 1019.7
20260906135019 65 96 2.6 4.3 0.00 0.00 0.00 86 1019.8
20260906134519 65 61 3.5 6.1 0.00 0.00 0.00 87 1019.7
20260906134019 64 138 5.2 7.8 0.00 0.00 0.00 87 1019.7
20260906133520 64 100 5.2 8.7 0.00 0.00 0.00 87 1019.7
20260906133020 64 93 4.3 8.7 0.00 0.00 0.00 88 1019.6
20260906132520 63 83 2.6 6.1 0.00 0.00 0.00 88 1019.6
20260906132020 63 120 0.9 5.2 0.00 0.00 0.00 89 1019.6
20260906131551 62 102 0.9 2.6 0.00 0.00 0.00 90 1019.7
20260906131520 62 102 0.9 2.6 0.00 0.00 0.00 90 1019.7
20260906131020 62 89 0.0 2.6 0.00 0.00 0.00 91 1019.6
20260906130520 61 67 0.0 0.9 0.00 0.00 0.00 92 1019.6
20260906130020 61 27 0.0 1.7 0.00 0.00 0.00 92 1019.6
20260906125520 60 13 0.0 2.6 0.00 0.00 0.00 93 1019.5
20260906125020 60 55 0.0 0.0 0.00 0.00 0.00 94 1019.5
20260906124520 60 55 0.0 0.0 0.00 0.00 0.00 94 1019.4
20260906124020 59 55 0.0 0.0 0.00 0.00 0.00 95 1019.4
20260906123520 59 55 0.0 0.0 0.00 0.00 0.00 96 1019.4
20260906123020 58 55 0.0 0.0 0.00 0.00 0.00 96 1019.4
20260906122520 57 55 0.0 0.0 0.00 0.00 0.00 96 1019.4
20260906122020 56 55 0.0 0.0 0.00 0.00 0.00 95 1019.4
20260906121520 56 55 0.0 0.0 0.00 0.00 0.00 95 1019.3
20260906121020 56 55 0.0 0.0 0.00 0.00 0.00 95 1019.1
20260906120520 55 55 0.0 0.0 0.00 0.00 0.00 95 1019.0
20260906120020 55 55 0.0 0.0 0.00 0.00 0.00 95 1018.9
20260906115520 55 55 0.0 0.0 0.00 0.00 0.00 94 1018.9
20260906115020 54 55 0.0 0.0 0.00 0.00 0.00 94 1018.8
20260906114520 54 55 0.0 0.0 0.00 0.00 0.00 94 1018.7
20260906114020 55 55 0.0 0.0 0.00 0.00 0.00 94 1018.6
20260906113520 55 55 0.0 0.0 0.00 0.00 0.00 94 1018.7
20260906113020 55 55 0.0 0.0 0.00 0.00 0.00 94 1018.6
20260906112520 55 55 0.0 0.0 0.00 0.00 0.00 93 1018.5
20260906112020 55 55 0.0 0.0 0.00 0.00 0.00 93 1018.4
20260906111520 55 55 0.0 0.0 0.00 0.00 0.00 93 1018.5
20260906111020 55 55 0.0 0.0 0.00 0.00 0.00 93 1018.4
20260906110520 55 55 0.0 0.0 0.00 0.00 0.00 92 1018.4
20260906110020 56 55 0.0 0.0 0.00 0.00 0.00 92 1018.4
20260906105520 56 55 0.0 0.0 0.00 0.00 0.00 92 1018.4
20260906105020 56 55 0.0 0.0 0.00 0.00 0.00 92 1018.3
20260906104555 56 55 0.0 0.0 0.00 0.00 0.00 92 1018.2
20260906104520 56 55 0.0 0.0 0.00 0.00 0.00 92 1018.2
20260906104020 56 55 0.0 0.0 0.00 0.00 0.00 91 1018.1
20260906103520 57 55 0.0 0.9 0.00 0.00 0.00 91 1018.1
20260906103020 57 51 0.0 0.0 0.00 0.00 0.00 91 1018.0
20260906102520 57 51 0.0 0.0 0.00 0.00 0.00 91 1017.9
20260906102020 58 51 0.0 0.0 0.00 0.00 0.00 91 1017.8
20260906101610 58 51 0.0 0.0 0.00 0.00 0.00 90 1017.9
20260906101520 58 51 0.0 0.0 0.00 0.00 0.00 90 1017.9
20260906101020 58 54 0.0 0.0 0.00 0.00 0.00 90 1017.8
20260906100542 58 57 0.0 0.9 0.00 0.00 0.00 90 1017.8
20260906100020 58 54 0.0 2.6 0.00 0.00 0.00 90 1017.8
20260906095520 58 78 0.0 0.9 0.00 0.00 0.00 90 1017.8
20260906095020 59 48 0.0 0.0 0.00 0.00 0.00 89 1017.9
20260906094520 59 48 0.0 0.0 0.00 0.00 0.00 89 1018.0
20260906094020 59 48 0.0 0.0 0.00 0.00 0.00 89 1017.9
20260906093520 59 53 0.0 0.9 0.00 0.00 0.00 88 1017.8
20260906093053 59 39 0.0 0.0 0.00 0.00 0.00 88 1017.8
20260906093020 59 39 0.0 0.0 0.00 0.00 0.00 88 1017.8
20260906092520 59 39 0.0 2.6 0.00 0.00 0.00 89 1017.7
20260906092020 60 35 0.0 1.7 0.00 0.00 0.00 89 1017.7
20260906091635 60 101 0.0 1.7 0.00 0.00 0.00 89 1017.7
20260906091520 60 101 0.0 1.7 0.00 0.00 0.00 89 1017.7
20260906091020 60 80 0.0 2.6 0.00 0.00 0.00 89 1017.6
20260906090520 60 112 0.9 0.9 0.00 0.00 0.00 89 1017.5
20260906090141 60 9 0.9 4.3 0.00 0.00 0.00 89 1017.5
20260906090020 60 9 0.9 4.3 0.00 0.00 0.00 89 1017.5
20260906085520 60 0 0.0 0.9 0.00 0.00 0.00 89 1017.5
20260906085020 60 69 0.0 0.0 0.00 0.00 0.00 89 1017.5
20260906084520 61 34 0.0 0.0 0.00 0.00 0.00 89 1017.4
20260906084020 61 32 0.9 4.3 0.00 0.00 0.00 89 1017.3
20260906083520 61 51 0.0 1.7 0.00 0.00 0.00 89 1017.3
20260906083021 61 67 0.0 2.6 0.00 0.00 0.00 89 1017.2
20260906082520 61 36 0.0 1.7 0.00 0.00 0.00 89 1017.2
20260906082020 61 29 0.0 0.9 0.00 0.00 0.00 88 1017.2
20260906081601 61 5 0.0 2.6 0.00 0.00 0.00 88 1017.2
20260906081521 61 5 0.0 2.6 0.00 0.00 0.00 88 1017.2
20260906081021 62 84 0.0 1.7 0.00 0.00 0.00 87 1017.2
20260906080521 62 69 0.9 1.7 0.00 0.00 0.00 87 1017.3
20260906080104 62 44 0.9 3.5 0.00 0.01 0.00 87 1017.2
20260906080021 62 44 0.9 3.5 0.00 0.01 0.00 87 1017.2
20260906075521 62 85 0.0 3.5 0.00 0.01 0.00 87 1017.2
20260906075021 62 66 0.0 1.7 0.00 0.01 0.00 87 1017.3
20260906074521 62 43 0.0 1.7 0.00 0.01 0.00 87 1017.2
20260906074021 63 89 0.9 2.6 0.00 0.01 0.00 87 1017.1
20260906073521 63 86 0.9 3.5 0.00 0.01 0.00 87 1017.0
20260906073021 63 67 0.9 2.6 0.00 0.01 0.00 87 1017.0
20260906072521 63 80 0.0 3.5 0.00 0.01 0.00 87 1017.1
20260906072021 63 53 0.9 1.7 0.00 0.01 0.00 86 1017.1
20260906071556 63 60 0.9 3.5 0.00 0.01 0.00 86 1017.0
20260906071521 63 60 0.9 3.5 0.00 0.01 0.00 86 1017.0
20260906071021 63 89 0.9 2.6 0.00 0.01 0.00 86 1017.0
20260906070521 64 105 0.9 5.2 0.00 0.01 0.00 85 1017.1
20260906070021 64 147 0.9 2.6 0.00 0.01 0.00 85 1017.2
20260906065521 64 95 1.7 4.3 0.00 0.01 0.00 85 1017.1
20260906065021 64 108 1.7 4.3 0.00 0.01 0.00 84 1017.2
20260906064521 64 138 2.6 5.2 0.00 0.01 0.00 84 1017.1
20260906064021 64 133 1.7 5.2 0.00 0.01 0.00 84 1017.1
20260906063521 64 103 2.6 5.2 0.00 0.01 0.00 84 1017.2
20260906063323 64 141 2.6 5.2 0.00 0.01 0.00 84 1017.2
20260906063109 64 141 2.6 5.2 0.00 0.01 0.00 84 1017.2
20260906063021 64 141 2.6 5.2 0.00 0.01 0.00 84 1017.2
20260906062521 65 103 2.6 4.3 0.00 0.01 0.00 84 1017.1
20260906062021 65 137 3.5 6.1 0.00 0.01 0.00 84 1017.1
20260906061521 65 130 2.6 6.1 0.00 0.01 0.00 84 1016.9
20260906061021 65 98 2.6 4.3 0.00 0.01 0.00 84 1017.1
20260906060521 65 103 3.5 6.1 0.00 0.01 0.00 84 1017.0
20260906060021 65 104 3.5 7.8 0.00 0.51 0.00 84 1017.1
20260906055521 65 132 3.5 6.1 0.00 0.51 0.00 84 1017.0
20260906055021 65 88 3.5 6.1 0.00 0.51 0.00 84 1017.0
20260906054554 65 117 3.5 7.8 0.00 0.51 0.00 84 1016.9
20260906054521 65 117 3.5 7.8 0.00 0.51 0.00 84 1016.9
20260906054021 66 136 3.5 8.7 0.00 0.51 0.00 84 1016.8
20260906053521 66 98 3.5 7.8 0.00 0.51 0.00 83 1016.8
20260906053021 66 151 4.3 8.7 0.00 0.51 0.00 84 1016.7
20260906052521 66 142 4.3 9.6 0.00 0.51 0.00 84 1016.6
20260906052021 66 69 4.3 8.7 0.00 0.51 0.00 84 1016.6
20260906051554 66 119 4.3 8.7 0.00 0.51 0.00 84 1016.6
20260906051521 66 119 4.3 8.7 0.00 0.51 0.00 84 1016.6
20260906051021 66 113 3.5 8.7 0.00 0.51 0.00 84 1016.5
20260906050521 66 126 3.5 8.7 0.00 0.51 0.00 83 1016.6
20260906050021 66 107 4.3 7.8 0.00 0.70 0.00 83 1016.6
20260906045521 67 115 4.3 10.4 0.00 0.70 0.00 83 1016.6
20260906045021 67 109 4.3 7.8 0.00 0.70 0.00 83 1016.5
20260906044621 67 59 5.2 11.3 0.00 0.70 0.00 83 1016.3
20260906044521 67 59 5.2 11.3 0.00 0.70 0.00 83 1016.3
20260906044021 67 105 5.2 11.3 0.00 0.70 0.00 83 1016.3
20260906043521 67 111 4.3 9.6 0.00 0.70 0.00 84 1016.2
20260906043021 67 71 3.5 9.6 0.00 0.70 0.00 84 1016.2
20260906042521 67 147 3.5 8.7 0.00 0.70 0.00 85 1016.3
20260906042021 67 88 3.5 7.0 0.00 0.70 0.00 85 1016.4
20260906041521 67 88 4.3 9.6 0.00 0.70 0.00 85 1016.2
20260906041021 67 121 4.3 7.0 0.00 0.70 0.00 85 1016.3
20260906040521 67 87 3.5 7.0 0.00 0.70 0.00 86 1016.3
20260906040021 67 105 2.6 4.3 0.00 1.27 0.00 86 1016.2
20260906035521 67 121 2.6 5.2 0.00 1.27 0.00 86 1016.3
20260906035021 67 115 2.6 5.2 0.00 1.27 0.00 87 1016.1
20260906034521 67 90 2.6 4.3 0.00 1.27 0.00 87 1016.2
20260906034021 67 105 2.6 4.3 0.00 1.27 0.00 87 1016.2
20260906033521 67 90 3.5 5.2 0.00 1.27 0.00 87 1016.2
20260906033126 67 76 2.6 5.2 0.00 1.27 0.00 87 1016.1
20260906033021 67 76 2.6 5.2 0.00 1.27 0.00 87 1016.1
20260906032521 67 84 2.6 4.3 0.00 1.27 0.00 87 1016.2
20260906032021 67 86 2.6 6.1 0.00 1.27 0.00 88 1016.1
20260906031556 67 76 1.7 4.3 0.00 1.27 0.00 89 1016.1
20260906031521 67 76 1.7 4.3 0.00 1.27 0.00 89 1016.1
20260906031021 67 74 1.7 4.3 0.00 1.27 0.00 89 1016.1
20260906030521 67 82 0.9 5.2 0.00 1.27 0.00 91 1016.1
20260906030021 67 83 1.7 4.3 0.00 1.27 0.00 92 1016.1
20260906025521 67 71 1.7 6.1 0.00 1.27 0.00 93 1016.0
20260906025021 67 51 0.9 5.2 0.00 1.27 0.00 94 1015.9
20260906024558 67 24 0.9 3.5 0.00 1.27 0.00 94 1015.9
20260906024522 67 24 0.9 3.5 0.00 1.27 0.00 94 1015.9
20260906024022 67 84 0.9 2.6 0.00 1.27 0.00 94 1015.8
20260906023522 67 86 0.0 3.5 0.00 1.27 0.00 95 1015.6
20260906023022 67 71 0.0 0.9 0.00 1.27 0.00 94 1015.5
20260906022522 67 55 0.0 1.7 0.00 1.27 0.00 94 1015.4
20260906022022 67 42 0.0 0.0 0.00 1.27 0.00 94 1015.3
20260906021522 67 84 0.0 0.0 0.00 1.27 0.00 94 1015.4
20260906021022 67 84 0.0 0.0 0.00 1.27 0.00 94 1015.5
20260906020522 67 84 0.0 0.0 0.00 1.27 0.00 94 1015.5
20260906020022 67 84 0.0 0.0 0.00 1.27 0.00 94 1015.5
20260906015522 68 84 0.0 0.0 0.00 1.27 0.00 94 1015.5
20260906015022 68 84 0.0 0.0 0.00 1.27 0.00 93 1015.4
20260906014522 68 84 0.0 0.0 0.00 1.27 0.00 93 1015.4
20260906014022 68 84 0.0 0.0 0.00 1.27 0.00 93 1015.3
20260906013522 68 84 0.0 0.0 0.00 1.27 0.00 93 1015.3
20260906013022 68 84 0.0 0.0 0.00 1.27 0.00 93 1015.2
20260906012522 69 84 0.0 0.0 0.00 1.27 0.00 93 1015.2
20260906012022 69 84 0.0 0.0 0.00 1.27 0.00 93 1015.1
20260906011522 69 84 0.0 0.0 0.00 1.27 0.00 92 1015.1
20260906011022 69 84 0.0 0.0 0.00 1.27 0.00 92 1015.0
20260906010524 70 84 0.0 0.0 0.00 1.27 0.00 92 1015.0
20260906010022 70 84 0.0 0.0 0.00 1.27 0.00 92 1014.9
20260906005522 70 84 0.0 0.0 0.00 1.27 0.00 92 1014.8
20260906005022 70 84 0.0 0.0 0.00 1.27 0.00 92 1014.7
20260906004522 70 84 0.0 0.0 0.00 1.27 0.00 91 1014.8
20260906004022 71 84 0.0 0.0 0.00 1.27 0.00 91 1014.8
20260906003522 71 84 0.0 0.0 0.00 1.27 0.00 91 1014.8
20260906003106 71 84 0.0 0.0 0.00 1.27 0.00 91 1014.7
20260906003022 71 84 0.0 0.0 0.00 1.27 0.00 91 1014.7
20260906002522 71 84 0.0 1.7 0.00 1.27 0.00 90 1014.6
20260906002022 72 84 0.0 0.0 0.00 1.27 0.00 90 1014.6
20260906001621 72 84 0.0 0.0 0.00 1.27 0.00 89 1014.7
20260906001522 72 84 0.0 0.0 0.00 1.27 0.00 89 1014.7
20260906001022 72 84 0.0 0.0 0.00 1.27 0.00 89 1014.7
20260906000522 72 84 0.0 0.0 0.00 1.27 0.00 88 1014.7
20260906000022 72 84 0.0 0.0 0.00 1.27 0.00 88 1014.5
20260905235522 72 84 0.0 0.9 0.00 1.27 0.00 88 1014.6
20260905235022 72 84 0.9 0.9 0.00 1.27 1.27 88 1014.5
20260905234522 72 94 0.9 3.5 0.00 1.27 1.27 88 1014.5
20260905234022 72 69 0.0 0.9 0.00 1.27 1.27 88 1014.6
20260905233522 72 83 0.0 1.7 0.00 1.27 1.27 87 1014.6
20260905233022 72 102 0.9 2.6 0.00 1.27 1.27 87 1014.6
20260905232522 72 61 0.0 1.7 0.00 1.27 1.27 88 1014.6
20260905232022 72 77 0.9 1.7 0.00 1.27 1.27 88 1014.6
20260905231522 72 46 0.9 2.6 0.00 1.27 1.27 88 1014.6
20260905231022 72 67 0.9 3.5 0.00 1.27 1.27 88 1014.6
20260905230522 72 86 0.0 1.7 0.00 1.27 1.27 88 1014.6
20260905230022 72 65 0.9 1.7 0.00 1.27 1.27 88 1014.5
20260905225522 72 99 1.7 4.3 0.00 1.27 1.27 88 1014.3
20260905225022 72 111 3.5 4.3 0.00 1.27 1.27 87 1014.2
20260905224522 72 100 3.5 6.1 0.00 1.27 1.27 87 1014.2
20260905224022 72 118 4.3 5.2 0.00 1.27 1.27 87 1014.1
20260905223522 72 130 4.3 9.6 0.00 1.27 1.27 87 1014.1
20260905223022 73 80 3.5 10.4 0.00 1.27 1.27 87 1014.0
20260905222522 73 45 4.3 8.7 0.00 1.27 1.27 86 1014.1
20260905222022 73 103 2.6 7.0 0.00 1.27 1.27 87 1014.0
20260905221522 73 103 2.6 5.2 0.00 1.27 1.27 87 1014.0
20260905221022 72 127 3.5 8.7 0.00 1.27 1.27 87 1014.0
20260905220522 72 105 4.3 10.4 0.00 1.27 1.27 87 1014.0
20260905220022 72 96 3.5 8.7 0.00 1.27 1.27 87 1014.0
20260905215522 72 103 3.5 9.6 0.00 1.27 1.27 87 1014.0
20260905215022 72 92 5.2 6.1 0.00 1.27 1.27 88 1013.8
20260905214523 72 90 6.1 11.3 0.00 1.27 1.27 87 1013.9
20260905214022 72 136 6.1 10.4 0.00 1.27 1.27 87 1013.9
20260905213522 72 69 4.3 12.2 0.00 1.27 1.27 87 1013.8
20260905213023 73 63 3.5 6.1 0.00 1.27 1.27 87 1013.8
20260905212523 73 76 3.5 7.8 0.00 1.27 1.27 87 1013.8
20260905212023 73 88 4.3 10.4 0.00 1.27 1.27 86 1013.8
20260905211523 73 84 4.3 8.7 0.00 1.27 1.27 86 1013.7
20260905211023 73 79 4.3 9.6 0.00 1.27 1.27 86 1013.7
20260905210523 73 49 4.3 8.7 0.00 1.27 1.27 86 1013.6
20260905210112 73 69 3.5 8.7 0.00 1.27 1.27 87 1013.6
20260905210023 73 69 3.5 8.7 0.00 1.27 1.27 87 1013.6
20260905205523 73 101 3.5 7.8 0.00 1.27 1.27 87 1013.6
20260905205023 73 67 3.5 8.7 0.00 1.27 1.27 87 1013.6
20260905204523 73 61 3.5 7.0 0.00 1.27 1.27 87 1013.6
20260905204023 73 38 4.3 6.1 0.00 1.27 1.27 87 1013.7
20260905203523 73 65 3.5 10.4 0.00 1.27 1.27 87 1013.7
20260905203023 74 78 1.7 7.8 0.00 1.27 1.27 87 1013.7
20260905202523 74 115 1.7 3.5 0.00 1.27 1.27 88 1013.8
20260905202023 74 74 0.9 6.1 0.00 1.27 1.27 88 1013.8
20260905201523 74 62 1.7 3.5 0.00 1.27 1.27 87 1013.8
20260905201023 74 48 1.7 5.2 0.00 1.27 1.27 87 1013.7
20260905200523 75 31 0.9 5.2 0.00 1.27 1.27 87 1013.7
20260905200023 75 17 0.9 6.1 0.00 1.27 1.27 87 1013.8
20260905195523 75 92 0.9 3.5 0.00 1.27 1.27 87 1013.6
20260905195023 75 58 0.9 2.6 0.00 1.27 1.27 88 1013.6
20260905194705 75 82 1.7 3.5 0.00 1.27 1.27 87 1013.6
20260905194523 75 82 1.7 3.5 0.00 1.27 1.27 87 1013.6
20260905194023 75 40 1.7 5.2 0.00 1.27 1.27 87 1013.8
20260905193523 75 81 0.9 4.3 0.00 1.27 1.27 87 1013.8
20260905193023 75 40 0.9 4.3 0.00 1.27 1.27 88 1013.8
20260905192523 75 316 0.9 2.6 0.00 1.27 1.27 87 1013.8
20260905192023 75 56 0.9 3.5 0.00 1.27 1.27 87 1013.8
20260905191523 75 329 1.7 4.3 0.00 1.27 1.27 87 1013.8
20260905191023 75 73 1.7 6.1 0.00 1.27 1.27 87 1013.8
20260905190523 75 88 1.7 6.1 0.00 1.27 1.27 87 1013.8
20260905190023 75 17 2.6 6.1 0.00 1.27 1.27 87 1013.9
20260905185523 76 37 1.7 6.1 0.00 1.27 1.27 86 1014.0
20260905185023 76 44 1.7 4.3 0.00 1.27 1.27 87 1014.0
20260905184523 76 42 1.7 8.7 0.00 1.27 1.27 86 1013.9
20260905184023 76 31 1.7 5.2 0.00 1.27 1.27 87 1013.8
20260905183523 76 106 0.9 3.5 0.00 1.27 1.27 87 1013.8
20260905183023 76 106 1.7 5.2 0.00 1.27 1.27 87 1013.8
20260905182523 76 19 1.7 6.1 0.00 1.27 1.27 86 1013.7
20260905182023 76 22 2.6 6.1 0.00 1.27 1.27 86 1013.8
20260905181523 76 52 2.6 6.1 0.00 1.27 1.27 86 1013.8
20260905181023 76 55 1.7 5.2 0.00 1.27 1.27 86 1013.9
20260905180523 76 90 1.7 5.2 0.00 1.27 1.27 85 1013.8
20260905180023 77 51 0.9 5.2 0.00 1.27 1.27 85 1013.8
20260905175523 77 305 0.9 3.5 0.00 1.27 1.27 84 1013.9
20260905175023 77 30 0.9 4.3 0.00 1.27 1.27 84 1013.9
20260905174523 77 90 1.7 3.5 0.00 1.27 1.27 82 1013.8
20260905174023 77 51 1.7 4.3 0.00 1.27 1.27 84 1013.9
20260905173523 76 69 1.7 5.2 0.00 1.27 1.27 83 1013.9
20260905173023 76 148 1.7 4.3 0.00 1.27 1.27 83 1013.9
20260905172523 76 85 1.7 4.3 0.00 1.27 1.27 84 1014.0
20260905172023 76 117 1.7 3.5 0.00 1.27 1.27 85 1014.0
20260905171523 76 132 1.7 6.1 0.00 1.27 1.27 84 1014.1
20260905171023 76 143 0.9 5.2 0.00 1.27 1.27 84 1014.2
20260905170523 76 227 0.9 2.6 0.00 1.27 1.27 85 1014.3
20260905170023 76 146 1.7 4.3 0.00 1.29 1.27 84 1014.3
20260905165523 76 144 1.7 5.2 0.00 1.29 1.27 85 1014.3
20260905165023 75 155 1.7 5.2 0.00 1.29 1.27 86 1014.3
20260905164523 75 128 2.6 4.3 0.00 1.29 1.27 85 1014.2
20260905164023 75 86 2.6 5.2 0.00 1.29 1.27 86 1014.2
20260905163524 75 94 1.7 5.2 0.00 1.29 1.27 87 1014.2
20260905163023 75 59 1.7 5.2 0.00 1.29 1.27 86 1014.2